Weather History for Pensacola, FL

Change the Weather History Date:

Wednesday, February 12, 2014

  Actual Average Record
Temperature  
Mean Temperature 46 °F 54 °F  
Max Temperature 50 °F 63 °F 77 °F (1950)
Min Temperature 42 °F 45 °F 10 °F (1982)
Degree Days  
Heating Degree Days 19 11  
Month to date heating degree days 139 145  
Since 1 July heating degree days 1215 1156  
Cooling Degree Days 0 0  
Month to date cooling degree days 0 0  
Year to date cooling degree days 0 6  
Moisture  
Dew Point 44 °F    
Average Humidity 88    
Maximum Humidity 93    
Minimum Humidity 82    
Precipitation  
Precipitation 1.51 in 0.19 in 2.35 in (1966)
Month to date precipitation 2.25 2.14  
Year to date precipitation 5.70 6.77  
Snow  
Snow 0.00 in 0.00 in - ()
Month to date snowfall T 0.0  
Since 1 July snowfall 1.0 0.0  
Snow Depth 0.00 in    
Sea Level Pressure  
Sea Level Pressure 29.88 in    
Wind  
Wind Speed 10 mph (NNE)    
Max Wind Speed 24 mph    
Max Gust Speed 35 mph    
Visibility 5 miles    
Events Rain , Thunderstorm    
T = Trace of Precipitation, MM = Missing Value Source: NWS Daily Summary

Daily Weather History Graph

Daily Weather History Graph

Search for Another Location

Airport:

Trip Planner

Search our weather history database for the weather conditions in past years. The results will help you decide how hot, cold, wet, or windy it might be!

Date:

Astronomy

Feb. 12, 2014 Rise Set
Actual Time 6:31 AM CST 5:34 PM CST
Civil Twilight 6:07 AM CST 5:59 PM CST
Nautical Twilight 5:38 AM CST 6:27 PM CST
Astronomical Twilight 5:10 AM CST 6:55 PM CST
Moon 3:50 PM CST (2/12) 4:44 AM CST (2/12)
Length of Visible Light 11h 52m
Length of Day
11h 02m
Waxing Gibbous, 95% of the Moon is Illuminated
Feb 12
Waxing Gibbous
Feb 14
Full
Feb 22
Last Quarter
Mar 1
New
Mar 8
First Quarter

Hourly Weather History & Observations

Time (CST) Temp. Windchill Dew Point Humidity Pressure Visibility Wind Dir Wind Speed Gust Speed Precip Events Conditions
12:02 AM 50.0 °F - 46.9 °F 89% 29.96 in 9.0 mi ENE 8.1 mph - 0.00 in Rain Light Rain
12:30 AM 48.9 °F - 46.9 °F 93% 29.95 in 10.0 mi East 10.4 mph - 0.02 in Rain Light Rain
12:53 AM 48.9 °F - 46.9 °F 93% 29.96 in 7.0 mi ENE 8.1 mph 20.7 mph 0.02 in Rain Light Rain
1:53 AM 48.9 °F - 46.0 °F 90% 29.95 in 5.0 mi NNE 9.2 mph - 0.04 in Rain Rain
2:53 AM 48.0 °F - 46.0 °F 93% 29.93 in 9.0 mi NNE 9.2 mph - 0.07 in Rain Light Rain
3:53 AM 46.9 °F - 44.1 °F 90% 29.93 in 9.0 mi North 12.7 mph 23.0 mph 0.00 in Rain Light Rain
4:17 AM 46.0 °F 38.0 °F 43.0 °F 89% 30.03 in 4.0 mi NW 21.9 mph 31.1 mph 0.04 in Rain , Thunderstorm Heavy Rain
4:32 AM 46.0 °F 38.3 °F 42.1 °F 86% 29.95 in 5.0 mi NNE 20.7 mph 34.5 mph 0.11 in Rain , Thunderstorm Thunderstorms and Rain
4:37 AM 45.0 °F 37.4 °F 42.1 °F 90% 29.93 in 5.0 mi NNE 18.4 mph 32.2 mph 0.12 in Rain , Thunderstorm Thunderstorms and Rain
4:53 AM 45.0 °F 37.6 °F 42.1 °F 90% 29.97 in 2.0 mi NNW 17.3 mph 23.0 mph 0.26 in Rain , Thunderstorm Heavy Thunderstorms and Rain
4:56 AM 45.0 °F 37.1 °F 42.1 °F 90% 29.94 in 1.2 mi NE 19.6 mph 25.3 mph 0.09 in Rain , Thunderstorm Heavy Rain
5:06 AM 46.0 °F 39.9 °F 43.0 °F 89% 29.92 in 1.2 mi NE 13.8 mph 28.8 mph 0.46 in Rain , Thunderstorm Heavy Thunderstorms and Rain
5:15 AM 46.0 °F 39.9 °F 44.1 °F 93% 29.94 in 2.0 mi NNE 13.8 mph 26.5 mph 0.57 in Rain , Thunderstorm Heavy Rain
5:22 AM 46.0 °F 40.6 °F 44.1 °F 93% 29.91 in 2.0 mi NE 11.5 mph - 0.71 in Rain , Thunderstorm Heavy Rain
5:33 AM 46.0 °F 39.9 °F 43.0 °F 89% 29.91 in 4.0 mi East 13.8 mph 21.9 mph 0.78 in Rain , Thunderstorm Heavy Rain
5:53 AM 46.9 °F - 44.1 °F 90% 29.90 in 4.0 mi East 12.7 mph 21.9 mph 0.88 in Rain Heavy Rain
6:09 AM 46.9 °F - 44.1 °F 90% 29.88 in 4.0 mi East 15.0 mph 25.3 mph 0.06 in Rain Heavy Rain
6:20 AM 46.9 °F - 44.1 °F 90% 29.89 in 6.0 mi Variable 5.8 mph 19.6 mph 0.10 in Rain Rain
6:53 AM 46.9 °F - 44.1 °F 90% 29.90 in 10.0 mi NE 5.8 mph - 0.12 in Rain Light Rain
7:53 AM 48.0 °F - 45.0 °F 89% 29.90 in 10.0 mi Calm Calm - 0.04 in Rain Light Rain
8:53 AM 48.0 °F - 45.0 °F 89% 29.90 in 10.0 mi North 4.6 mph - 0.01 in   Overcast
9:53 AM 48.9 °F - 46.0 °F 90% 29.91 in 10.0 mi North 6.9 mph - N/A   Overcast
10:50 AM 48.2 °F - 46.4 °F 93% 29.88 in 2.0 mi NNE 5.8 mph - N/A   Overcast
10:53 AM 48.9 °F - 46.0 °F 90% 29.89 in 1.5 mi NNE 5.8 mph - 0.00 in Rain Light Rain
11:14 AM 48.9 °F - 46.9 °F 93% 29.87 in 3.0 mi NNE 6.9 mph - 0.01 in Rain Light Rain
11:29 AM 48.9 °F - 46.9 °F 93% 29.85 in 2.0 mi NNE 8.1 mph - 0.01 in Rain Light Rain
11:53 AM 48.9 °F - 46.0 °F 90% 29.85 in 3.0 mi NNE 10.4 mph - 0.02 in Rain Light Rain
12:30 PM 48.9 °F - 46.9 °F 93% 29.82 in 2.0 mi NNE 8.1 mph - 0.00 in Rain Light Rain
12:50 PM 48.2 °F - 46.4 °F 93% 29.81 in 1.5 mi NNE 6.9 mph - 0.01 in Rain Light Rain
12:53 PM 50.0 °F - 46.9 °F 89% 29.81 in 1.5 mi North 6.9 mph - 0.01 in Rain Light Rain
1:12 PM 48.9 °F - 46.0 °F 90% 29.79 in 2.5 mi NNE 9.2 mph - 0.00 in   Overcast
1:38 PM 50.0 °F - 46.9 °F 89% 29.77 in 2.5 mi North 10.4 mph - 0.01 in Rain Light Rain
1:53 PM 48.9 °F - 46.0 °F 90% 29.78 in 2.0 mi North 8.1 mph - 0.01 in Rain Light Rain
2:09 PM 48.9 °F - 46.0 °F 90% 29.77 in 1.5 mi North 9.2 mph - 0.01 in Rain Light Rain
2:53 PM 48.9 °F - 46.0 °F 90% 29.78 in 5.0 mi North 10.4 mph - 0.03 in   Overcast
3:53 PM 48.0 °F - 45.0 °F 89% 29.79 in 2.5 mi NNW 17.3 mph - N/A   Overcast
4:53 PM 46.0 °F 41.0 °F 43.0 °F 89% 29.80 in 2.5 mi North 10.4 mph - 0.00 in   Overcast
5:53 PM 45.0 °F 39.7 °F 42.1 °F 90% 29.81 in 2.5 mi North 10.4 mph - 0.00 in   Overcast
5:59 PM 45.0 °F 39.3 °F 42.1 °F 90% 29.80 in 8.0 mi North 11.5 mph - N/A   Overcast
6:07 PM 45.0 °F 39.7 °F 41.0 °F 86% 29.80 in 10.0 mi North 10.4 mph - N/A   Overcast
6:53 PM 45.0 °F 38.2 °F 41.0 °F 86% 29.83 in 10.0 mi NNW 15.0 mph 19.6 mph N/A   Overcast
7:53 PM 44.1 °F 37.7 °F 39.9 °F 85% 29.85 in 10.0 mi North 12.7 mph - N/A   Overcast
8:53 PM 43.0 °F 36.4 °F 39.0 °F 86% 29.87 in 10.0 mi North 12.7 mph 21.9 mph N/A   Overcast
9:53 PM 42.1 °F 35.7 °F 37.9 °F 85% 29.87 in 10.0 mi North 11.5 mph 19.6 mph 0.00 in   Overcast
10:00 PM 42.1 °F 36.1 °F 37.9 °F 85% 29.86 in 10.0 mi North 10.4 mph - N/A   Overcast
10:53 PM 42.1 °F 35.7 °F 37.0 °F 82% 29.87 in 10.0 mi North 11.5 mph - N/A   Overcast
11:53 PM 42.1 °F 36.1 °F 37.0 °F 82% 29.88 in 10.0 mi NNW 10.4 mph - N/A   Overcast